[[{"header":{"parameterUnit":"m.s-1","parameterCategory":1,"la1":30.2992,"la2":30.254,"lo1":-89.0895,"lo2":-89.0443,"dy":0.0025,"dx":0.0025,"nx":19,"ny":19,"refTime":"2026-03-11T09:00:00:Z","depth":0,"parameterNumber":2,"parameterNumberName":"U-component_of_WINDS"},"data":[0,0,0,-2.4306,-2.4307,-2.4344,-2.4344,-2.4393,-2.4394,0,0,0,0,0,0,0,0,0,0,0,-2.4296,-2.4297,-2.4306,-2.4307,-2.4344,-2.4344,-2.4393,-2.4394,0,0,0,0,0,0,0,0,0,0,0,-2.4296,-2.4297,-2.4297,-2.4307,-2.4344,-2.4344,-2.4393,-2.4364,0,0,0,0,0,0,0,0,0,0,-2.4328,-2.432,-2.4297,-2.4297,-2.4307,-2.4344,-2.4344,-2.4363,-2.4366,-2.4377,0,-2.4388,0,-2.4391,-2.4397,-2.4397,0,0,0,-2.4306,-2.4318,-2.4327,-2.4297,-2.4308,-2.4344,-2.4327,-2.4365,-2.4368,-2.4381,-2.4388,-2.439,-2.4392,-2.4397,-2.4398,-2.4465,-2.4465,0,0,-2.4304,-2.4304,-2.4324,-2.4329,-2.4324,-2.4326,-2.4328,-2.4367,-2.4374,-2.4388,-2.4391,-2.4393,-2.4398,-2.4398,-2.4464,-2.4465,0,0,0,-2.4299,-2.4302,-2.431,-2.4327,-2.4334,-2.4327,-2.433,-2.4373,-2.4375,-2.4392,-2.4394,-2.4398,-2.4399,-2.4464,-2.4464,-2.4481,0,0,0,-2.4298,-2.4299,-2.4309,-2.431,-2.4333,-2.4354,-2.4334,-2.4372,-2.4377,-2.4393,-2.4398,-2.4399,-2.4463,-2.4464,-2.4479,-2.4488,0,0,0,-2.4294,-2.4299,-2.4305,-2.431,-2.4326,-2.4353,-2.4358,-2.4373,-2.4378,-2.4397,-2.4399,-2.4463,-2.4464,-2.4478,-2.4486,-2.4504,0,0,0,-2.4289,-2.4319,-2.4305,-2.4339,-2.4325,-2.4364,-2.4358,-2.4386,-2.4405,-2.4398,-2.4463,-2.4464,-2.4478,-2.4485,-2.4503,-2.4519,-2.4526,0,0,-2.4327,-2.4324,-2.4344,-2.4332,-2.4373,-2.4358,-2.4401,-2.4418,-2.4421,-2.445,-2.4451,-2.448,-2.4486,-2.4504,-2.4567,-2.4572,0,0,0,-2.4356,-2.437,-2.4381,-2.4399,-2.4413,-2.4425,-2.4436,-2.4443,-2.4467,-2.4436,-2.4492,-2.4496,-2.4507,-2.4514,-2.4519,-2.4527,-2.4468,-2.4468,-2.4468,-2.4408,-2.4409,-2.4442,-2.4448,-2.4466,-2.4476,-2.449,-2.4501,-2.4497,-2.4511,-2.4519,-2.4556,-2.4565,-2.4569,-2.4577,-2.4528,-2.4529,-2.4529,-2.4529,-2.4462,-2.4482,-2.4477,-2.4507,-2.4508,-2.4533,-2.4545,-2.4542,-2.4565,-2.4551,-2.456,-2.4542,-2.4574,-2.4582,-2.453,-2.453,-2.453,-2.4529,-2.4529,-2.4495,-2.4504,-2.4512,-2.4537,-2.4556,-2.4562,-2.4584,-2.4585,-2.4586,-2.4595,-2.4603,-2.4603,-2.4601,-2.4599,-2.4599,-2.46,-2.46,-2.46,-2.46,-2.4525,-2.4533,-2.4552,-2.4569,-2.458,-2.4595,-2.4607,-2.4618,-2.463,-2.4628,-2.4628,-2.4623,-2.4578,-2.4566,-2.4602,-2.4601,-2.4601,-2.4601,-2.4601,-2.4576,-2.4564,-2.4593,-2.4605,-2.4625,-2.4643,-2.4645,-2.4667,-2.4676,-2.4687,-2.468,-2.4647,-2.4644,-2.464,-2.463,-2.468,-2.468,-2.468,-2.468,-2.4602,-2.4601,-2.463,-2.4648,-2.4665,-2.4669,-2.4701,-2.4711,-2.4718,-2.4724,-2.4717,-2.4704,-2.4701,-2.47,-2.4695,-2.4685,-2.4748,-2.4748,-2.4748,-2.4633,-2.4633,-2.466,-2.4668,-2.4684,-2.4698,-2.4727,-2.4747,-2.4754,-2.4751,-2.4728,-2.4725,-2.4704,-2.4698,-2.4692,-2.4685,-2.4667,0,0]},{"header":{"parameterUnit":"m.s-1","parameterCategory":1,"la1":30.2992,"la2":30.254,"lo1":-89.0895,"lo2":-89.0443,"dy":0.0025,"dx":0.0025,"nx":19,"ny":19,"refTime":"2026-03-11T09:00:00:Z","depth":0,"parameterNumber":3,"parameterNumberName":"V-component_of_WINDS"},"data":[0,0,0,3.2122,3.2125,3.2278,3.2278,3.2465,3.2466,0,0,0,0,0,0,0,0,0,0,0,3.2068,3.2068,3.2121,3.2125,3.2278,3.2278,3.2465,3.2466,0,0,0,0,0,0,0,0,0,0,0,3.2067,3.2068,3.2069,3.2125,3.2277,3.2278,3.2464,3.2353,0,0,0,0,0,0,0,0,0,0,3.2206,3.2147,3.2068,3.2069,3.2126,3.2277,3.2279,3.2348,3.236,3.2391,0,3.2413,0,3.2443,3.2478,3.2479,0,0,0,3.2132,3.2137,3.2186,3.2069,3.2128,3.2277,3.2211,3.2355,3.2368,3.2407,3.2416,3.2423,3.2446,3.2479,3.248,3.263,3.263,0,0,3.2124,3.2091,3.2176,3.2194,3.2166,3.2206,3.2215,3.2363,3.2372,3.2417,3.2428,3.2449,3.248,3.2482,3.263,3.263,0,0,0,3.2094,3.2085,3.213,3.2186,3.2214,3.221,3.2221,3.2365,3.2383,3.243,3.2451,3.2481,3.2483,3.2629,3.263,3.2617,0,0,0,3.209,3.2068,3.2126,3.2108,3.2211,3.2291,3.222,3.2373,3.239,3.245,3.2481,3.2485,3.2629,3.263,3.2616,3.2616,0,0,0,3.2061,3.2064,3.2083,3.2106,3.217,3.2289,3.2316,3.2377,3.2403,3.2479,3.2486,3.2629,3.263,3.2616,3.2616,3.2648,0,0,0,3.2021,3.2069,3.2082,3.2145,3.2168,3.2279,3.2315,3.2399,3.2462,3.2482,3.2629,3.263,3.2616,3.2615,3.2647,3.267,3.2676,0,0,3.2063,3.2073,3.2112,3.2129,3.2228,3.2258,3.2357,3.2447,3.2485,3.258,3.2584,3.2616,3.2616,3.2648,3.2717,3.2721,0,0,0,3.2115,3.2143,3.2177,3.2235,3.2303,3.2364,3.2442,3.2476,3.2559,3.2526,3.2637,3.2638,3.2658,3.2671,3.2674,3.2695,3.2634,3.2634,3.2633,3.2129,3.2174,3.2244,3.2309,3.2365,3.2446,3.2497,3.2557,3.2587,3.2612,3.2641,3.2678,3.2691,3.2694,3.2715,3.2656,3.2656,3.2656,3.2656,3.2197,3.2246,3.2285,3.2366,3.2415,3.2486,3.2567,3.2586,3.2661,3.2659,3.2679,3.2674,3.2697,3.2718,3.2655,3.2655,3.2655,3.2655,3.2655,3.2213,3.2244,3.2284,3.2375,3.244,3.2505,3.2576,3.2618,3.2659,3.2679,3.2716,3.2716,3.2724,3.2693,3.2693,3.2693,3.2693,3.2694,3.2694,3.2213,3.2259,3.2311,3.239,3.2435,3.2499,3.2583,3.263,3.2692,3.2718,3.2719,3.2748,3.269,3.2675,3.2696,3.2695,3.2695,3.2695,3.2695,3.2268,3.2263,3.2344,3.2389,3.2488,3.2552,3.2605,3.2697,3.2741,3.2775,3.2801,3.275,3.2764,3.2761,3.275,3.2789,3.2789,3.2789,3.2789,3.2283,3.2293,3.2388,3.2457,3.253,3.2587,3.2683,3.275,3.2819,3.285,3.2851,3.2839,3.2834,3.2851,3.2846,3.2837,3.2897,3.2897,3.2897,3.2321,3.2341,3.2411,3.2477,3.2558,3.2627,3.2719,3.2801,3.2878,3.2902,3.2877,3.2872,3.2854,3.2845,3.2868,3.286,3.2843,0,0]}]]